LA5NNA Lyngdal DE current weather conditions

sailwx.info

Wind from 089 at 4 knots gusting 5

Air temperature 15.6° C
Dewpoint 10.5° C

Last reported at 2019-Aug-21 19:10 UTC.
Time now 2019-Aug-21 20:00 UTC

Location: N 58°01' E 007°00'.
View on Google Maps.

See reports from other nearby stations

  
Tides and Currents Weather Stations Pressure Air Temp Water Temp Dewpoint Dewpoint Depression Visibility Wind Speed Wind Dir Waves Ship Positions
date/time (UTC)wind fromknots sea level pressurealtimeterstation pressurevisibilityair tempwater tempwave heightnotes
2019-Aug-21 19:10 089 4 gusting 5 15.6
2019-Aug-21 19:04 090 4 gusting 5 15.6
2019-Aug-21 19:00 112 2 gusting 4 15.6
2019-Aug-21 18:54 111 2 gusting 4 16.1
2019-Aug-21 18:49 107 2 gusting 4 16.1
2019-Aug-21 18:44 122 2 gusting 5 16.1
2019-Aug-21 18:40 131 2 gusting 5 16.1
2019-Aug-21 18:34 132 2 gusting 5 16.1
2019-Aug-21 18:30 132 2 gusting 4 16.1
2019-Aug-21 18:24 137 2 gusting 4 16.1
2019-Aug-21 18:19 118 2 gusting 4 16.1
2019-Aug-21 18:14 128 2 gusting 2 16.1
2019-Aug-21 18:09 147 1 gusting 1 16.7
2019-Aug-21 18:04 130 1 gusting 1 16.7
2019-Aug-21 18:00 204 1 gusting 1 16.7
2019-Aug-21 17:54 215 0 gusting 2 16.7
2019-Aug-21 17:49 292 1 gusting 1 16.7
2019-Aug-21 17:44 235 0 gusting 4 16.7
2019-Aug-21 17:39 209 1 gusting 2 16.7
2019-Aug-21 17:34 212 1 gusting 2 16.7
2019-Aug-21 17:30 226 0 gusting 4 16.7
2019-Aug-21 17:25 190 1 gusting 2 16.7
2019-Aug-21 17:20 192 2 gusting 4 16.7
2019-Aug-21 17:14 198 1 gusting 5 16.7
2019-Aug-21 17:09 232 1 gusting 4 16.7
2019-Aug-21 17:04 221 2 gusting 6 16.7
2019-Aug-21 17:00 212 2 gusting 6 16.7
2019-Aug-21 16:54 268 2 gusting 5 17.2
2019-Aug-21 16:49 277 3 gusting 5 16.7
2019-Aug-21 16:44 232 2 gusting 6 16.7
2019-Aug-21 16:39 247 4 gusting 6 16.7
2019-Aug-21 16:34 246 3 gusting 7 16.7
2019-Aug-21 16:30 279 5 gusting 6 16.7
2019-Aug-21 16:24 282 5 gusting 6 16.7
2019-Aug-21 16:19 272 5 gusting 7 16.7
2019-Aug-21 16:14 262 6 gusting 8 16.7
2019-Aug-21 16:10 267 7 gusting 8 17.2
2019-Aug-21 16:04 272 7 gusting 10 17.2
2019-Aug-21 16:00 268 7 gusting 10 17.2
2019-Aug-21 15:54 278 6 gusting 10 17.2
2019-Aug-21 15:50 266 6 gusting 8 17.2
2019-Aug-21 15:44 265 6 gusting 8 17.2
2019-Aug-21 15:39 275 6 gusting 8 17.2
2019-Aug-21 15:35 273 7 gusting 10 17.2
2019-Aug-21 15:30 267 7 gusting 11 17.2
2019-Aug-21 15:24 287 6 gusting 11 17.2
2019-Aug-21 15:19 279 6 gusting 11 17.2
2019-Aug-21 15:14 274 8 gusting 12 17.2
2019-Aug-21 15:09 266 9 gusting 13 17.2
2019-Aug-21 15:04 271 7 gusting 12 17.2
2019-Aug-21 15:00 262 8 gusting 12 17.2
2019-Aug-21 14:54 273 10 gusting 13 17.2
2019-Aug-21 14:50 271 10 gusting 12 17.2
2019-Aug-21 14:45 264 11 gusting 13 17.2
2019-Aug-21 14:39 269 9 gusting 13 17.2
2019-Aug-21 14:34 261 9 gusting 13 17.2
2019-Aug-21 14:30 268 10 gusting 13 17.2
2019-Aug-21 14:24 268 10 gusting 15 17.2
2019-Aug-21 14:19 260 11 gusting 13 17.2
2019-Aug-21 14:14 271 11 gusting 13 17.2
2019-Aug-21 14:09 288 10 gusting 14 17.2
2019-Aug-21 14:04 273 11 gusting 15 17.2
2019-Aug-21 14:00 275 12 gusting 15 17.2
2019-Aug-21 13:55 271 12 gusting 17 17.2
2019-Aug-21 13:49 275 12 gusting 15 17.2
2019-Aug-21 13:44 274 10 gusting 17 16.7
2019-Aug-21 13:40 278 13 gusting 19 16.7
2019-Aug-21 13:35 265 14 gusting 18 17.2
2019-Aug-21 13:30 268 13 gusting 17 16.7
2019-Aug-21 13:24 273 12 gusting 19 16.7
2019-Aug-21 13:19 273 14 gusting 19 17.2
2019-Aug-21 13:14 270 12 gusting 18 16.7
2019-Aug-21 13:09 273 14 gusting 19 17.2
2019-Aug-21 13:05 273 15 gusting 19 16.7
2019-Aug-21 13:00 273 13 gusting 18 16.7
2019-Aug-21 12:55 269 15 gusting 18 16.7
2019-Aug-21 12:50 271 13 gusting 19 16.7
2019-Aug-21 12:45 269 12 gusting 18 16.7
2019-Aug-21 12:40 271 15 gusting 19 16.7
2019-Aug-21 12:34 266 15 gusting 19 16.7
2019-Aug-21 12:30 272 14 gusting 19 16.7
2019-Aug-21 12:24 274 13 gusting 18 16.7
2019-Aug-21 12:20 289 9 gusting 13 16.1
2019-Aug-21 12:15 308 8 gusting 12 16.1
2019-Aug-21 12:09 267 7 gusting 12 16.1
2019-Aug-21 12:04 303 10 gusting 13 16.1
2019-Aug-21 12:00 292 7 gusting 12 16.1
2019-Aug-21 11:55 296 8 gusting 13 16.1
2019-Aug-21 11:50 297 7 gusting 13 16.1
2019-Aug-21 11:44 302 8 gusting 13 16.7
2019-Aug-21 11:40 295 8 gusting 11 16.7
2019-Aug-21 11:34 302 8 gusting 13 16.7
2019-Aug-21 11:30 309 7 gusting 13 16.7
2019-Aug-21 11:24 296 7 gusting 11 16.7
2019-Aug-21 11:20 294 8 gusting 13 16.7
2019-Aug-21 11:14 291 10 gusting 13 16.1
2019-Aug-21 11:10 284 7 gusting 11 16.1
2019-Aug-21 11:04 291 8 gusting 12 16.1
2019-Aug-21 11:00 276 10 gusting 13 16.1
2019-Aug-21 10:55 286 8 gusting 13 16.1
2019-Aug-21 10:50 271 8 gusting 13 16.7
2019-Aug-21 10:45 270 9 gusting 12 16.7
2019-Aug-21 10:39 271 10 gusting 13 16.7
2019-Aug-21 10:35 272 10 gusting 14 16.7
2019-Aug-21 10:30 268 11 gusting 15 16.7
2019-Aug-21 10:20 277 11 gusting 14 16.7
2019-Aug-21 10:15 288 11 gusting 13 16.7
2019-Aug-21 10:10 272 9 gusting 15 16.7
2019-Aug-21 10:04 288 10 gusting 15 16.7
2019-Aug-21 10:00 271 10 gusting 14 16.7
2019-Aug-21 09:55 293 11 gusting 13 16.1
2019-Aug-21 09:50 279 8 gusting 13 16.1
2019-Aug-21 09:44 273 11 gusting 14 16.1
2019-Aug-21 09:40 270 11 gusting 14 16.1
2019-Aug-21 09:35 281 11 gusting 15 16.1
2019-Aug-21 09:30 274 9 gusting 14 16.1
2019-Aug-21 09:25 286 10 gusting 15 16.1
2019-Aug-21 09:20 286 11 gusting 13 16.1
2019-Aug-21 09:15 291 11 gusting 15 16.1
2019-Aug-21 09:10 277 10 gusting 14 16.1
2019-Aug-21 09:04 290 11 gusting 14 16.1
2019-Aug-21 09:00 294 8 gusting 14 16.1
2019-Aug-21 08:55 299 10 gusting 14 16.1
2019-Aug-21 08:50 293 11 gusting 17 16.1
2019-Aug-21 08:45 299 10 gusting 13 16.1
2019-Aug-21 08:40 295 10 gusting 14 16.7
2019-Aug-21 08:35 291 8 gusting 12 16.1
2019-Aug-21 08:30 299 7 gusting 13 16.1
2019-Aug-21 08:25 308 7 gusting 14 16.1
2019-Aug-21 08:20 303 10 gusting 13 16.1
2019-Aug-21 08:15 298 8 gusting 13 15.6
2019-Aug-21 08:10 295 8 gusting 13 15.6
2019-Aug-21 08:05 306 7 gusting 12 15.6
2019-Aug-21 08:00 297 8 gusting 13 15.0
2019-Aug-21 07:55 313 8 gusting 13 15.0
2019-Aug-21 07:50 308 9 gusting 13 15.0
2019-Aug-21 07:45 311 9 gusting 12 15.0
2019-Aug-21 07:40 304 7 gusting 11 15.0
2019-Aug-21 07:35 312 7 gusting 11 15.0
2019-Aug-21 07:30 310 7 gusting 13 14.4
2019-Aug-21 07:25 309 7 gusting 13 14.4
2019-Aug-21 07:20 313 8 gusting 13 14.4
2019-Aug-21 07:15 312 8 gusting 14 14.4
2019-Aug-21 07:10 313 8 gusting 13 13.9
2019-Aug-21 07:05 298 8 gusting 12 13.9
2019-Aug-21 07:00 300 7 gusting 12 13.9
2019-Aug-21 06:55 300 8 gusting 13 13.9
2019-Aug-21 06:50 311 8 gusting 14 13.9
2019-Aug-21 06:45 315 7 gusting 14 13.9
2019-Aug-21 06:40 311 6 gusting 11 13.9
2019-Aug-21 06:35 308 6 gusting 10 13.9
2019-Aug-21 06:30 316 4 gusting 6 13.3
2019-Aug-21 06:25 309 4 gusting 7 13.3
2019-Aug-21 06:20 319 5 gusting 7 13.3
2019-Aug-21 06:14 326 6 gusting 8 13.3
2019-Aug-21 06:10 319 4 gusting 8 13.3
2019-Aug-21 06:05 316 5 gusting 6 13.3
2019-Aug-21 06:00 315 5 gusting 8 13.3
2019-Aug-21 05:55 321 2 gusting 6 13.3
2019-Aug-21 05:50 320 6 gusting 12 13.3
2019-Aug-21 05:45 318 6 gusting 12 13.3
2019-Aug-21 05:40 314 5 gusting 8 13.3
2019-Aug-21 05:35 315 5 gusting 12 13.3
2019-Aug-21 05:30 321 7 gusting 12 13.3
2019-Aug-21 05:25 313 6 gusting 11 13.3
2019-Aug-21 05:20 318 7 gusting 11 13.3
2019-Aug-21 05:15 316 7 gusting 13 13.3
2019-Aug-21 05:10 319 7 gusting 11 13.3
2019-Aug-21 05:05 321 7 gusting 11 13.3
2019-Aug-21 05:00 314 9 gusting 14 13.3
2019-Aug-21 04:55 318 10 gusting 14 13.3
2019-Aug-21 04:50 326 5 gusting 11 12.8
2019-Aug-21 04:45 326 5 gusting 11 12.8
2019-Aug-21 04:40 329 6 gusting 17 12.8
2019-Aug-21 04:35 324 7 gusting 12 12.8
2019-Aug-21 04:30 312 7 gusting 13 12.8
2019-Aug-21 04:25 300 8 gusting 17 13.3
2019-Aug-21 04:20 297 12 gusting 19 13.3
2019-Aug-21 04:15 293 14 gusting 21 13.3
2019-Aug-21 04:10 300 8 gusting 12 13.3
2019-Aug-21 04:05 307 6 gusting 8 13.3
2019-Aug-21 04:00 305 6 gusting 8 13.3
2019-Aug-21 03:55 308 6 gusting 8 13.3
2019-Aug-21 03:50 303 6 gusting 11 13.3
2019-Aug-21 03:45 303 7 gusting 11 13.3
2019-Aug-21 03:40 309 9 gusting 13 13.3
2019-Aug-21 03:35 298 7 gusting 11 13.3
2019-Aug-21 03:30 286 7 gusting 11 13.3
2019-Aug-21 03:25 291 8 gusting 12 13.3
2019-Aug-21 03:20 271 10 gusting 12 13.3
2019-Aug-21 03:15 272 11 gusting 14 13.3
2019-Aug-21 03:10 276 12 gusting 19 13.3
2019-Aug-21 03:05 271 14 gusting 19 13.3
2019-Aug-21 03:00 273 16 gusting 20 13.3
2019-Aug-21 02:55 274 14 gusting 19 13.3
2019-Aug-21 02:50 280 12 gusting 19 13.3
2019-Aug-21 02:45 269 12 gusting 17 13.3
2019-Aug-21 02:40 271 12 gusting 18 13.3
2019-Aug-21 02:35 275 14 gusting 19 13.3
2019-Aug-21 02:30 270 16 gusting 22 13.3
2019-Aug-21 02:25 278 12 gusting 14 13.3
2019-Aug-21 02:20 296 7 gusting 11 13.3
2019-Aug-21 02:15 296 8 gusting 11 13.3
2019-Aug-21 02:10 294 7 gusting 11 13.9
2019-Aug-21 02:05 298 10 gusting 13 13.9
2019-Aug-21 02:00 307 8 gusting 12 13.9
2019-Aug-21 01:55 307 8 gusting 13 13.9
2019-Aug-21 01:50 299 10 gusting 17 13.9
2019-Aug-21 01:45 291 11 gusting 17 13.9
2019-Aug-21 01:40 280 8 gusting 12 13.9
2019-Aug-21 01:35 299 8 gusting 13 13.9
2019-Aug-21 01:30 306 6 gusting 10 13.9
2019-Aug-21 01:25 313 7 gusting 11 13.9
2019-Aug-21 01:20 300 6 gusting 11 13.9
2019-Aug-21 01:15 305 7 gusting 11 13.9
2019-Aug-21 01:10 307 9 gusting 14 13.9
2019-Aug-21 01:05 299 8 gusting 14 13.9
2019-Aug-21 01:00 295 8 gusting 14 13.9
2019-Aug-21 00:55 296 12 gusting 15 13.9
2019-Aug-21 00:50 301 8 gusting 13 13.9
2019-Aug-21 00:45 295 9 gusting 13 13.9
2019-Aug-21 00:40 306 8 gusting 14 13.9
2019-Aug-21 00:35 292 11 gusting 17 13.9
2019-Aug-21 00:30 300 9 gusting 15 13.9
2019-Aug-21 00:25 302 10 gusting 13 13.3
2019-Aug-21 00:20 289 6 gusting 10 13.3
2019-Aug-21 00:15 308 6 gusting 8 13.3
2019-Aug-21 00:10 299 6 gusting 10 13.3
2019-Aug-21 00:05 300 6 gusting 10 13.3
2019-Aug-21 00:00 299 6 gusting 7 13.3
2019-Aug-20 23:55 289 6 gusting 10 13.3
2019-Aug-20 23:50 309 6 gusting 8 13.3
2019-Aug-20 23:45 315 5 gusting 8 13.3
2019-Aug-20 23:40 310 5 gusting 8 13.3
2019-Aug-20 23:35 319 5 gusting 8 13.3
2019-Aug-20 23:30 296 6 gusting 8 13.3
2019-Aug-20 23:25 308 6 gusting 8 13.3
2019-Aug-20 23:20 305 5 gusting 7 13.3
2019-Aug-20 23:15 309 6 gusting 8 13.3
2019-Aug-20 23:10 305 6 gusting 8 13.3
2019-Aug-20 23:05 302 6 gusting 11 13.3
2019-Aug-20 23:00 313 7 gusting 11 13.3
2019-Aug-20 22:55 303 8 gusting 11 13.9
2019-Aug-20 22:50 295 7 gusting 11 13.9
2019-Aug-20 22:45 306 7 gusting 11 13.9
2019-Aug-20 22:40 310 6 gusting 11 13.9
2019-Aug-20 22:35 299 7 gusting 12 13.9
2019-Aug-20 22:30 307 6 gusting 12 13.9
2019-Aug-20 22:25 294 7 gusting 11 13.9
2019-Aug-20 22:20 308 8 gusting 12 13.9
2019-Aug-20 22:15 297 6 gusting 10 13.9
2019-Aug-20 22:10 302 6 gusting 10 13.9
2019-Aug-20 22:05 288 7 gusting 12 13.9
2019-Aug-20 22:00 295 8 gusting 11 13.9
2019-Aug-20 21:55 298 8 gusting 12 13.9
2019-Aug-20 21:50 304 8 gusting 12 13.9
2019-Aug-20 21:45 291 7 gusting 11 13.9
2019-Aug-20 21:40 299 6 gusting 10 13.9
2019-Aug-20 21:35 304 5 gusting 7 13.9
2019-Aug-20 21:30 300 6 gusting 10 13.9
2019-Aug-20 21:25 308 6 gusting 10 14.4
2019-Aug-20 21:20 291 6 gusting 8 14.4
2019-Aug-20 21:15 296 4 gusting 6 14.4
2019-Aug-20 21:10 309 4 gusting 6 14.4
2019-Aug-20 21:05 318 6 gusting 7 14.4
2019-Aug-20 21:00 309 4 gusting 6 14.4
2019-Aug-20 20:55 293 6 gusting 10 14.4
2019-Aug-20 20:50 298 6 gusting 10 13.9
2019-Aug-20 20:45 291 6 gusting 11 13.9
2019-Aug-20 20:40 295 7 gusting 11 13.9
2019-Aug-20 20:35 288 6 gusting 11 13.9
2019-Aug-20 20:30 296 7 gusting 11 13.9
2019-Aug-20 20:25 303 6 gusting 10 13.9
2019-Aug-20 20:20 299 6 gusting 11 13.9
2019-Aug-20 20:15 302 8 gusting 13 13.9
2019-Aug-20 20:10 293 9 gusting 13 13.9
2019-Aug-20 20:05 300 8 gusting 12 13.9
2019-Aug-20 20:00 298 7 gusting 11 13.9
2019-Aug-20 19:55 306 8 gusting 12 13.9
2019-Aug-20 19:50 309 9 gusting 13 13.9
2019-Aug-20 19:45 296 9 gusting 14 13.9
2019-Aug-20 19:40 309 9 gusting 14 14.4
2019-Aug-20 19:35 292 8 gusting 13 14.4
2019-Aug-20 19:30 293 11 gusting 13 14.4
2019-Aug-20 19:25 295 9 gusting 14 14.4
2019-Aug-20 19:20 301 9 gusting 14 14.4
2019-Aug-20 19:15 305 12 gusting 15 14.4
2019-Aug-20 19:10 300 9 gusting 15 14.4
2019-Aug-20 19:05 303 11 gusting 18 15.0
2019-Aug-20 19:00 309 10 gusting 15 15.0
2019-Aug-20 18:55 287 11 gusting 14 15.0
2019-Aug-20 18:50 297 11 gusting 15 15.0
2019-Aug-20 18:45 292 12 gusting 17 15.0
2019-Aug-20 18:40 291 13 gusting 17 15.0
2019-Aug-20 18:35 300 11 gusting 15 15.0
2019-Aug-20 18:30 300 11 gusting 17 15.0
2019-Aug-20 18:25 294 12 gusting 17 15.6
2019-Aug-20 18:20 296 12 gusting 17 15.6
2019-Aug-20 18:15 300 10 gusting 19 15.6
2019-Aug-20 18:10 284 11 gusting 14 15.6
2019-Aug-20 18:05 277 11 gusting 15 15.6
2019-Aug-20 18:00 290 11 gusting 15 15.6
2019-Aug-20 17:55 297 11 gusting 17 15.6
2019-Aug-20 17:50 298 11 gusting 17 15.6
2019-Aug-20 17:45 297 13 gusting 17 15.6
2019-Aug-20 17:40 290 12 gusting 18 15.6
2019-Aug-20 17:35 297 11 gusting 15 15.6
2019-Aug-20 17:30 288 13 gusting 17 15.6
2019-Aug-20 17:25 279 13 gusting 19 15.6
2019-Aug-20 17:20 272 11 gusting 17 15.6
2019-Aug-20 17:15 269 11 gusting 15 15.6
2019-Aug-20 17:10 266 13 gusting 17 16.1
2019-Aug-20 17:05 267 13 gusting 17 16.1
2019-Aug-20 17:00 272 13 gusting 17 16.1
2019-Aug-20 16:55 272 10 gusting 19 16.1
2019-Aug-20 16:50 266 10 gusting 15 16.1
2019-Aug-20 16:45 273 13 gusting 18 16.1
2019-Aug-20 16:40 269 12 gusting 17 16.1
2019-Aug-20 16:35 275 12 gusting 17 16.7
2019-Aug-20 16:30 269 13 gusting 18 16.7
2019-Aug-20 16:25 280 11 gusting 15 16.7
2019-Aug-20 16:20 272 11 gusting 17 16.7
2019-Aug-20 16:15 268 12 gusting 15 16.7
2019-Aug-20 16:10 278 13 gusting 19 16.7
2019-Aug-20 16:05 286 13 gusting 18 16.7
2019-Aug-20 16:00 294 12 gusting 18 16.7
2019-Aug-20 15:55 274 13 gusting 19 16.7
2019-Aug-20 15:50 288 13 gusting 19 16.7
2019-Aug-20 15:45 302 12 gusting 19 16.7
2019-Aug-20 15:40 273 13 gusting 19 16.7
2019-Aug-20 15:35 288 13 gusting 19 16.7
2019-Aug-20 15:30 280 13 gusting 18 16.7
2019-Aug-20 15:25 281 12 gusting 18 16.7
2019-Aug-20 15:20 279 13 gusting 19 16.7
2019-Aug-20 15:15 292 13 gusting 19 16.7
2019-Aug-20 15:10 271 13 gusting 19 16.7
2019-Aug-20 15:05 274 13 gusting 19 16.7
2019-Aug-20 15:00 295 14 gusting 20 17.2
2019-Aug-20 14:55 273 11 gusting 18 17.2
2019-Aug-20 14:50 299 12 gusting 18 17.2
2019-Aug-20 14:45 287 13 gusting 19 16.7
2019-Aug-20 14:40 295 12 gusting 19 16.7
2019-Aug-20 14:35 290 13 gusting 17 17.2
2019-Aug-20 14:30 273 12 gusting 19 17.2
2019-Aug-20 14:25 294 12 gusting 17 17.2
2019-Aug-20 14:20 286 12 gusting 19 17.2
2019-Aug-20 14:15 281 12 gusting 19 17.8
2019-Aug-20 14:10 284 11 gusting 18 17.8
2019-Aug-20 14:05 275 13 gusting 17 17.8
2019-Aug-20 14:00 293 13 gusting 18 17.8
2019-Aug-20 13:55 275 13 gusting 18 17.8
2019-Aug-20 13:50 271 12 gusting 17 17.2
2019-Aug-20 13:45 282 12 gusting 20 17.2
2019-Aug-20 13:40 280 13 gusting 17 17.2
2019-Aug-20 13:35 280 10 gusting 17 16.7
2019-Aug-20 13:30 284 11 gusting 17 16.7
2019-Aug-20 13:25 276 11 gusting 15 16.7
2019-Aug-20 13:20 267 11 gusting 17 16.7
2019-Aug-20 13:15 283 11 gusting 17 16.7
2019-Aug-20 13:10 276 11 gusting 13 16.7
2019-Aug-20 13:05 261 10 gusting 13 16.7
2019-Aug-20 13:00 267 11 gusting 14 16.7
2019-Aug-20 12:55 265 14 gusting 20 17.2
2019-Aug-20 12:50 271 13 gusting 21 17.2
2019-Aug-20 12:45 281 15 gusting 24 17.8
2019-Aug-20 12:40 263 13 gusting 17 17.8
2019-Aug-20 12:35 250 13 gusting 18 17.8
2019-Aug-20 12:30 263 11 gusting 17 17.8
2019-Aug-20 12:25 269 13 gusting 19 17.2
2019-Aug-20 12:20 265 14 gusting 19 17.2
2019-Aug-20 12:15 266 14 gusting 18 17.2
2019-Aug-20 12:10 266 12 gusting 15 17.2
2019-Aug-20 12:05 274 14 gusting 19 17.8
2019-Aug-20 12:00 269 14 gusting 19 18.3
2019-Aug-20 11:55 265 11 gusting 15 18.3
2019-Aug-20 11:50 265 12 gusting 17 18.3
2019-Aug-20 11:45 255 11 gusting 18 18.3
2019-Aug-20 11:40 259 11 gusting 17 18.3
2019-Aug-20 11:35 269 11 gusting 17 18.3
2019-Aug-20 11:30 270 12 gusting 17 18.3
2019-Aug-20 11:25 268 12 gusting 17 18.3
2019-Aug-20 11:20 270 12 gusting 18 18.3
2019-Aug-20 11:15 264 11 gusting 17 17.8
2019-Aug-20 11:10 259 11 gusting 17 17.8
2019-Aug-20 11:05 269 12 gusting 15 17.8
2019-Aug-20 11:00 262 12 gusting 14 17.8
2019-Aug-20 10:55 269 13 gusting 15 17.8
2019-Aug-20 10:50 267 13 gusting 18 17.8
2019-Aug-20 10:45 271 16 gusting 20 17.8
2019-Aug-20 10:40 270 16 gusting 22 18.3
2019-Aug-20 10:35 240 10 gusting 19 18.3
2019-Aug-20 10:30 238 11 gusting 19 17.8
2019-Aug-20 10:25 259 11 gusting 19 17.8
2019-Aug-20 10:20 265 13 gusting 19 18.3
2019-Aug-20 10:15 249 10 gusting 19 18.3
2019-Aug-20 10:10 265 12 gusting 19 18.3
2019-Aug-20 10:05 236 7 gusting 18 17.8
2019-Aug-20 10:00 253 9 gusting 15 17.8
2019-Aug-20 09:55 260 11 gusting 18 17.8
2019-Aug-20 09:50 243 10 gusting 19 17.8
2019-Aug-20 09:45 240 10 gusting 19 17.8
2019-Aug-20 09:40 237 10 gusting 18 17.8
2019-Aug-20 09:35 247 11 gusting 17 17.8
2019-Aug-20 09:30 234 8 gusting 18 17.8
2019-Aug-20 09:25 225 9 gusting 14 17.8
2019-Aug-20 09:20 239 10 gusting 17 17.8
2019-Aug-20 09:15 240 7 gusting 14 17.2
2019-Aug-20 09:10 257 9 gusting 18 17.2
2019-Aug-20 09:05 253 10 gusting 20 17.2
2019-Aug-20 09:00 256 11 gusting 19 17.2
2019-Aug-20 08:55 254 8 gusting 17 17.2
2019-Aug-20 08:50 220 7 gusting 15 17.2
2019-Aug-20 08:45 239 7 gusting 14 17.2
2019-Aug-20 08:40 234 8 gusting 17 17.2
2019-Aug-20 08:35 237 7 gusting 18 17.2
2019-Aug-20 08:30 239 7 gusting 15 17.2
2019-Aug-20 08:25 250 9 gusting 17 17.2
2019-Aug-20 08:20 222 7 gusting 14 17.2
2019-Aug-20 08:15 262 8 gusting 13 17.2
2019-Aug-20 08:10 251 11 gusting 17 17.2
2019-Aug-20 08:05 244 10 gusting 15 16.7
2019-Aug-20 08:00 251 9 gusting 17 16.7
2019-Aug-20 07:55 250 9 gusting 18 16.7
2019-Aug-20 07:50 257 9 gusting 15 16.7
2019-Aug-20 07:45 268 11 gusting 19 16.7
2019-Aug-20 07:40 232 8 gusting 14 16.7
2019-Aug-20 07:35 250 10 gusting 15 16.7
2019-Aug-20 07:30 245 8 gusting 19 16.7
2019-Aug-20 07:25 235 7 gusting 13 16.7
2019-Aug-20 07:20 241 8 gusting 13 16.7
2019-Aug-20 07:15 246 7 gusting 13 16.1
2019-Aug-20 07:10 218 6 gusting 12 16.1
2019-Aug-20 07:05 258 8 gusting 12 16.1
2019-Aug-20 07:00 251 8 gusting 14 16.1
2019-Aug-20 06:55 258 10 gusting 17 16.1
2019-Aug-20 06:50 227 9 gusting 15 16.1
2019-Aug-20 06:45 250 7 gusting 13 16.1
2019-Aug-20 06:40 236 7 gusting 13 16.1
2019-Aug-20 06:35 248 6 gusting 13 15.6
2019-Aug-20 06:30 241 6 gusting 15 15.6
2019-Aug-20 06:25 229 6 gusting 13 15.6
2019-Aug-20 06:20 226 5 gusting 13 15.6
2019-Aug-20 06:15 236 7 gusting 15 15.6
2019-Aug-20 06:10 252 8 gusting 15 15.6
2019-Aug-20 06:05 242 7 gusting 15 15.6
2019-Aug-20 06:00 234 6 gusting 13 15.6
2019-Aug-20 05:55 236 7 gusting 14 15.6
2019-Aug-20 05:50 232 8 gusting 13 15.6
2019-Aug-20 05:45 236 6 gusting 13 15.6
2019-Aug-20 05:40 226 7 gusting 13 15.6
2019-Aug-20 05:35 238 7 gusting 17 15.6
2019-Aug-20 05:30 254 7 gusting 14 15.6
2019-Aug-20 05:25 255 9 gusting 14 15.6
2019-Aug-20 05:20 231 6 gusting 12 15.6
2019-Aug-20 05:15 242 6 gusting 13 15.6
2019-Aug-20 05:10 227 6 gusting 13 15.6
2019-Aug-20 05:05 237 4 gusting 13 15.6
2019-Aug-20 05:00 236 6 gusting 10 15.6
2019-Aug-20 04:55 213 7 gusting 15 15.6
2019-Aug-20 04:50 228 6 gusting 14 15.6
2019-Aug-20 04:45 236 5 gusting 12 15.6
2019-Aug-20 04:40 230 6 gusting 13 15.6
2019-Aug-20 04:35 231 7 gusting 13 15.6
2019-Aug-20 04:30 235 6 gusting 12 15.6
2019-Aug-20 04:25 237 7 gusting 13 15.6
2019-Aug-20 04:20 228 6 gusting 12 15.6
2019-Aug-20 04:15 202 6 gusting 13 15.6
2019-Aug-20 04:10 234 7 gusting 13 15.6
2019-Aug-20 04:05 238 5 gusting 15 15.6
2019-Aug-20 04:00 230 6 gusting 15 15.6
2019-Aug-20 03:55 218 5 gusting 13 15.6
2019-Aug-20 03:50 203 8 gusting 14 15.6
2019-Aug-20 03:45 233 7 gusting 14 16.1
2019-Aug-20 03:40 237 6 gusting 13 15.6
2019-Aug-20 03:35 247 9 gusting 15 15.6
2019-Aug-20 03:30 238 7 gusting 13 15.6
2019-Aug-20 03:25 236 7 gusting 13 15.6
2019-Aug-20 03:20 254 6 gusting 13 15.6
2019-Aug-20 03:15 249 7 gusting 14 15.6
2019-Aug-20 03:10 241 8 gusting 15 15.6
2019-Aug-20 03:05 231 10 gusting 19 15.6
2019-Aug-20 03:00 245 10 gusting 18 16.1
2019-Aug-20 02:55 233 7 gusting 13 16.1
2019-Aug-20 02:50 243 11 gusting 17 16.1
2019-Aug-20 02:45 223 7 gusting 17 16.1
2019-Aug-20 02:40 247 7 gusting 14 16.1
2019-Aug-20 02:35 223 7 gusting 18 16.1
2019-Aug-20 02:30 244 8 gusting 18 16.1
2019-Aug-20 02:25 246 7 gusting 17 15.6
2019-Aug-20 02:20 230 10 gusting 15 15.6
2019-Aug-20 02:15 255 9 gusting 17 16.1
2019-Aug-20 02:10 258 11 gusting 17 16.1
2019-Aug-20 02:05 250 7 gusting 18 16.1
2019-Aug-20 02:00 251 11 gusting 18 16.1
2019-Aug-20 01:55 250 12 gusting 19 16.1
2019-Aug-20 01:50 258 13 gusting 19 16.1
2019-Aug-20 01:45 261 12 gusting 18 16.1
2019-Aug-20 01:40 247 12 gusting 19 16.1
2019-Aug-20 01:35 254 12 gusting 18 16.1
2019-Aug-20 01:30 255 13 gusting 20 16.1
2019-Aug-20 01:25 261 14 gusting 21 16.1
2019-Aug-20 01:20 254 13 gusting 19 16.1
2019-Aug-20 01:15 248 12 gusting 19 16.1
2019-Aug-20 01:10 255 14 gusting 19 16.1
2019-Aug-20 01:05 251 14 gusting 20 16.1
2019-Aug-20 01:00 255 14 gusting 22 16.1
2019-Aug-20 00:55 261 14 gusting 20 15.6
2019-Aug-20 00:50 255 13 gusting 20 15.6
2019-Aug-20 00:45 256 13 gusting 21 16.1
2019-Aug-20 00:40 255 14 gusting 21 15.6
2019-Aug-20 00:35 256 15 gusting 20 16.1
2019-Aug-20 00:30 270 13 gusting 19 15.6
2019-Aug-20 00:25 262 14 gusting 21 15.6
2019-Aug-20 00:20 269 17 gusting 21 15.6
2019-Aug-20 00:15 244 15 gusting 20 16.1
2019-Aug-20 00:10 266 12 gusting 20 16.1
2019-Aug-20 00:05 251 12 gusting 21 16.1
2019-Aug-20 00:00 267 16 gusting 20 16.1
2019-Aug-19 23:55 265 14 gusting 21 16.1
2019-Aug-19 23:50 265 16 gusting 22 16.1
2019-Aug-19 23:45 262 16 gusting 24 16.1
2019-Aug-19 23:40 252 13 gusting 20 16.1
2019-Aug-19 23:35 271 15 gusting 22 15.6
2019-Aug-19 23:30 266 17 gusting 22 16.1
2019-Aug-19 23:25 254 15 gusting 22 15.6
2019-Aug-19 23:20 258 15 gusting 25 15.6
2019-Aug-19 23:15 257 14 gusting 25 15.6
2019-Aug-19 23:10 257 15 gusting 21 15.6
2019-Aug-19 23:05 263 14 gusting 19 15.6
2019-Aug-19 23:00 260 13 gusting 21 15.6
2019-Aug-19 22:55 250 15 gusting 24 15.6
2019-Aug-19 22:50 265 18 gusting 25 15.6
2019-Aug-19 22:45 258 16 gusting 26 15.6
2019-Aug-19 22:40 259 17 gusting 26 15.6
2019-Aug-19 22:35 253 18 gusting 25 15.6
2019-Aug-19 22:30 250 15 gusting 21 15.6
2019-Aug-19 22:25 264 13 gusting 19 15.6
2019-Aug-19 22:20 251 14 gusting 21 15.6
2019-Aug-19 22:15 259 12 gusting 19 15.6
2019-Aug-19 22:10 262 13 gusting 20 15.6
2019-Aug-19 22:05 248 13 gusting 22 15.6
2019-Aug-19 22:00 258 9 gusting 19 15.6
2019-Aug-19 21:55 268 12 gusting 19 15.6
2019-Aug-19 21:50 256 12 gusting 20 15.6
2019-Aug-19 21:45 265 10 gusting 18 15.6
2019-Aug-19 21:40 248 10 gusting 19 15.6
2019-Aug-19 21:35 261 13 gusting 19 15.6
2019-Aug-19 21:30 265 12 gusting 20 15.6
2019-Aug-19 21:25 268 9 gusting 18 15.6
2019-Aug-19 21:20 254 12 gusting 19 15.6
2019-Aug-19 21:15 267 13 gusting 18 15.6
2019-Aug-19 21:10 267 13 gusting 19 16.1
2019-Aug-19 21:05 272 15 gusting 19 16.1
2019-Aug-19 21:00 255 8 gusting 15 16.1
2019-Aug-19 20:55 262 13 gusting 19 16.1
2019-Aug-19 20:50 271 15 gusting 19 16.1
2019-Aug-19 20:45 264 13 gusting 19 16.1
2019-Aug-19 20:40 255 11 gusting 18 16.1
2019-Aug-19 20:35 255 13 gusting 19 16.1
2019-Aug-19 20:30 266 15 gusting 21 15.6
2019-Aug-19 20:25 256 12 gusting 18 15.6
2019-Aug-19 20:20 254 12 gusting 19 15.6
2019-Aug-19 20:15 256 13 gusting 19 15.6
2019-Aug-19 20:10 246 9 gusting 14 15.6
2019-Aug-19 20:05 239 11 gusting 15 15.6
2019-Aug-19 20:00 247 10 gusting 15 15.6